This is the latest recevied weather packets stored in our database for station/object SV1JCZ-13. If no packets are shown the sender has not sent any weather packets the latest 10 day(s).
| Time | Temp. | Humidity | Pressure | Rain* | Wind** | Luminosity | Snow |
|---|---|---|---|---|---|---|---|
| 1777736350 | 13.33° C | 51% | 0 hPa | 0 mm | - | - | - |
| 1777736231 | 13.33° C | 50% | 0 hPa | 0 mm | - | - | - |
| 1777735990 | 13.89° C | 49% | 0 hPa | 0 mm | - | - | - |
| 1777735630 | 14.44° C | 49% | 0 hPa | 0 mm | - | - | - |
| 1777735270 | 13.89° C | 46% | 0 hPa | 0 mm | - | - | - |
| 1777735031 | 13.89° C | 50% | 0 hPa | 0 mm | - | - | - |
| 1777734910 | 13.33° C | 51% | 0 hPa | 0 mm | - | - | - |
| 1777734550 | 12.78° C | 51% | 0 hPa | 0 mm | - | - | - |
| 1777733830 | 12.78° C | 52% | 0 hPa | 0 mm | - | - | - |
| 1777733470 | 12.78° C | 50% | 0 hPa | 0 mm | - | - | - |
| 1777733110 | 12.22° C | 53% | 0 hPa | 0 mm | - | - | - |
| 1777732750 | 11.67° C | 54% | 0 hPa | 0 mm | - | - | - |
| 1777732631 | 11.11° C | 57% | 0 hPa | 0 mm | - | - | - |
| 1777732390 | 11.11° C | 57% | 0 hPa | 0 mm | - | - | - |
| 1777732030 | 11.11° C | 57% | 0 hPa | 0 mm | - | - | - |
| 1777731670 | 11.67° C | 55% | 0 hPa | 0 mm | - | - | - |
| 1777731431 | 11.67° C | 52% | 0 hPa | 0 mm | - | - | - |
| 1777731310 | 11.67° C | 54% | 0 hPa | 0 mm | - | - | - |
| 1777730950 | 11.11° C | 58% | 0 hPa | 0 mm | - | - | - |
| 1777730230 | 10.56° C | 59% | 0 hPa | 0 mm | - | - | - |
| 1777729870 | 10.56° C | 60% | 0 hPa | 0 mm | - | - | - |
| 1777729510 | 11.11° C | 58% | 0 hPa | 0 mm | - | - | - |
| 1777729150 | 11.11° C | 56% | 0 hPa | 0 mm | - | - | - |
| 1777728790 | 10.56° C | 62% | 0 hPa | 0 mm | - | - | - |
| 1777728430 | 9.44° C | 64% | 0 hPa | 0 mm | - | - | - |
* Rain latest hour (hover to see other rain measurements)
** Current wind speed in m/s (hover to see current wind gust speed)